Station History

Weather Underground - logo

Station Historical Data
Daily Summary for February 24, 2018 Units:  Metric    English   Both
« Previous Day
Next Day »
Daily Weekly Monthly Yearly Custom
  High: Low: Average:
Temperature: 14.5 °C -1.4 °C 6.8 °C
Dew Point: 1.4 °C -3.4 °C -1.7 °C
Humidity: 89 % 30 % 60 %
Wind Speed: 13 km/h 0 km/h 1.9 km/h
Wind Gust: 13 km/h - -
Wind:- - WSW
Pressure: 1031.7 hPa 1024.6 hPa -
Precipitation: 0 mm    
Historical Graphs
 
 
Tabular Data for February 24, 2018
Time Temperature Dew Point Pressure Wind Wind Speed Wind Gust Humidity Rainfall Rate (Hourly)
00:00 0.9 °C -1.5 °C 1030 hPa Calm     84 % 0 mm
00:05 0.9 °C -1.4 °C 1030 hPa Calm     84 % 0 mm
00:10 1.1 °C -1.5 °C 1030 hPa Calm     83 % 0 mm
00:15 1.1 °C -1.5 °C 1030.4 hPa Calm     83 % 0 mm
00:20 0.8 °C -1.6 °C 1030.4 hPa Calm     84 % 0 mm
00:25 0.6 °C -1.4 °C 1030.4 hPa Calm     86 % 0 mm
00:30 0.6 °C -1.4 °C 1030.4 hPa Calm     86 % 0 mm
00:35 0.6 °C -1.4 °C 1030.7 hPa Calm     86 % 0 mm
00:40 0.6 °C -1.4 °C 1030.4 hPa Calm     86 % 0 mm
00:45 0.6 °C -1.6 °C 1030.7 hPa Calm     85 % 0 mm
00:51 0.6 °C -1.7 °C 1030.7 hPa Calm     85 % 0 mm
00:56 0.5 °C -1.7 °C 1030.4 hPa Calm     85 % 0 mm
01:01 0.4 °C -1.8 °C 1030.4 hPa Calm     85 % 0 mm
01:06 0.4 °C -1.8 °C 1030.4 hPa Calm     85 % 0 mm
01:11 0.3 °C -1.9 °C 1030.4 hPa Calm     85 % 0 mm
01:16 0.3 °C -1.9 °C 1030.4 hPa Calm     85 % 0 mm
01:21 0.2 °C -2 °C 1030.4 hPa Calm     85 % 0 mm
01:26 0.2 °C -2.1 °C 1030.4 hPa Calm     85 % 0 mm
01:31 0.2 °C -1.9 °C 1030.4 hPa Calm     86 % 0 mm
01:36 0.2 °C -1.9 °C 1030.4 hPa Calm     86 % 0 mm
01:41 0.1 °C -1.9 °C 1030.4 hPa Calm     86 % 0 mm
01:46 0.1 °C -1.8 °C 1030.4 hPa Calm     87 % 0 mm
01:51 0.1 °C -1.8 °C 1030.4 hPa Calm     87 % 0 mm
01:56 0 °C -1.9 °C 1030.4 hPa Calm     87 % 0 mm
02:01 0 °C -1.8 °C 1030.4 hPa Calm     88 % 0 mm
02:06 0.1 °C -1.8 °C 1030.4 hPa Calm     87 % 0 mm
02:11 0.1 °C -1.8 °C 1030.4 hPa Calm     87 % 0 mm
02:16 0.1 °C -1.7 °C 1030.4 hPa Calm     88 % 0 mm
02:21 0 °C -1.9 °C 1030.4 hPa Calm     87 % 0 mm
02:26 -0.1 °C -2 °C 1030.4 hPa Calm     87 % 0 mm
02:31 -0.2 °C -1.9 °C 1030.4 hPa Calm     88 % 0 mm
02:36 -0.2 °C -1.9 °C 1030.4 hPa Calm     88 % 0 mm
02:41 -0.2 °C -2.1 °C 1030.4 hPa Calm     87 % 0 mm
02:46 -0.2 °C -2.1 °C 1030.4 hPa Calm     87 % 0 mm
02:51 -0.3 °C -2.3 °C 1030.4 hPa Calm     86 % 0 mm
02:56 -0.4 °C -2.5 °C 1030.4 hPa Calm     86 % 0 mm
03:01 -0.4 °C -2.3 °C 1030.4 hPa Calm     87 % 0 mm
03:06 -0.4 °C -2.3 °C 1030.4 hPa Calm     87 % 0 mm
03:11 -0.4 °C -2.3 °C 1030.4 hPa Calm     87 % 0 mm
03:16 -0.4 °C -2.3 °C 1030.4 hPa Calm     87 % 0 mm
03:21 -0.3 °C -2.2 °C 1030.4 hPa Calm     87 % 0 mm
03:26 -0.4 °C -2.3 °C 1030.4 hPa Calm     87 % 0 mm
03:31 -0.5 °C -2.4 °C 1030.4 hPa Calm     87 % 0 mm
03:36 -0.7 °C -2.6 °C 1030.4 hPa Calm     87 % 0 mm
03:41 -0.7 °C -2.4 °C 1030.4 hPa Calm     88 % 0 mm
03:46 -0.6 °C -2.3 °C 1030.4 hPa Calm     88 % 0 mm
03:51 -0.4 °C -2.1 °C 1030.4 hPa Calm     88 % 0 mm
03:56 -0.3 °C -2.2 °C 1030.4 hPa Calm     87 % 0 mm
04:01 -0.2 °C -2.2 °C 1030.4 hPa NNW 1.9 km/h 1.9 km/h 86 % 0 mm
04:06 -0.2 °C -2.2 °C 1030.4 hPa NNW 1.6 km/h   86 % 0 mm
04:11 -0.2 °C -2.2 °C 1030.7 hPa Calm     86 % 0 mm
04:16 -0.2 °C -2.3 °C 1030.7 hPa Calm     86 % 0 mm
04:21 -0.4 °C -2.5 °C 1030.7 hPa Calm     86 % 0 mm
04:27 -0.7 °C -2.7 °C 1030.7 hPa Calm     86 % 0 mm
04:32 -0.8 °C -2.5 °C 1030.7 hPa Calm     88 % 0 mm
04:37 -0.7 °C -2.4 °C 1030.7 hPa Calm     88 % 0 mm
04:42 -0.6 °C -2.3 °C 1030.7 hPa Calm     88 % 0 mm
04:47 -0.6 °C -2.4 °C 1030.7 hPa Calm     87 % 0 mm
04:52 -0.6 °C -2.4 °C 1030.7 hPa Calm     87 % 0 mm
04:57 -0.7 °C -2.6 °C 1030.7 hPa Calm     87 % 0 mm
05:02 -0.8 °C -2.8 °C 1031 hPa Calm     86 % 0 mm
05:07 -0.9 °C -2.8 °C 1031 hPa Calm     87 % 0 mm
05:12 -1.1 °C -2.9 °C 1031 hPa Calm     87 % 0 mm
05:17 -1.1 °C -2.8 °C 1031 hPa Calm     88 % 0 mm
05:22 -1.1 °C -2.8 °C 1031 hPa Calm     88 % 0 mm
05:27 -1.1 °C -2.7 °C 1031 hPa Calm     89 % 0 mm
05:32 -1.1 °C -2.6 °C 1031 hPa Calm     89 % 0 mm
05:37 -1 °C -2.6 °C 1031 hPa Calm     89 % 0 mm
05:42 -1.1 °C -2.6 °C 1031 hPa Calm     89 % 0 mm
05:47 -1.1 °C -2.7 °C 1031 hPa Calm     89 % 0 mm
05:52 -1.2 °C -2.8 °C 1031 hPa Calm     89 % 0 mm
05:57 -1.2 °C -2.8 °C 1031 hPa Calm     89 % 0 mm
06:02 -1.3 °C -2.9 °C 1031.4 hPa Calm     89 % 0 mm
06:07 -1.4 °C -2.9 °C 1031 hPa Calm     89 % 0 mm
06:12 -1.4 °C -3 °C 1031 hPa Calm     89 % 0 mm
06:17 -1.4 °C -3 °C 1031 hPa Calm     89 % 0 mm
06:22 -1.4 °C -2.9 °C 1031 hPa Calm     89 % 0 mm
06:27 -1.2 °C -2.8 °C 1031 hPa Calm     89 % 0 mm
06:32 -1.2 °C -2.9 °C 1031 hPa Calm     88 % 0 mm
06:37 -1.2 °C -2.9 °C 1031 hPa Calm     88 % 0 mm
06:42 -1.3 °C -3.2 °C 1031 hPa Calm     87 % 0 mm
06:47 -1.4 °C -3.2 °C 1031 hPa Calm     88 % 0 mm
06:52 -1.3 °C -3 °C 1031 hPa Calm     88 % 0 mm
06:57 -1.1 °C -2.8 °C 1031 hPa Calm     88 % 0 mm
07:02 -0.9 °C -2.6 °C 1031 hPa Calm     88 % 0 mm
07:07 -0.8 °C -2.7 °C 1031.4 hPa Calm     87 % 0 mm
07:12 -0.6 °C -2.4 °C 1031.4 hPa Calm     87 % 0 mm
07:17 -0.3 °C -2.3 °C 1031.4 hPa Calm     86 % 0 mm
07:23 0.1 °C -2 °C 1031.4 hPa Calm     86 % 0 mm
07:28 0.2 °C -2 °C 1031.4 hPa Calm     85 % 0 mm
07:33 0.4 °C -1.8 °C 1031.7 hPa Calm     85 % 0 mm
07:38 0.9 °C -1.3 °C 1031.4 hPa Calm     85 % 0 mm
07:43 2.1 °C -0.6 °C 1031.7 hPa Calm     83 % 0 mm
07:48 3.1 °C 0 °C 1031.7 hPa Calm     80 % 0 mm
07:53 3.8 °C 0.1 °C 1031.4 hPa Calm     77 % 0 mm
07:58 4.3 °C 0.4 °C 1031.4 hPa Calm     76 % 0 mm
08:03 4.8 °C 0.6 °C 1031.4 hPa SE 1.9 km/h   74 % 0 mm
08:08 5.4 °C 1.3 °C 1031.4 hPa Calm     75 % 0 mm
08:13 5.8 °C 1.2 °C 1031.4 hPa Calm     72 % 0 mm
08:18 6.2 °C 1.2 °C 1031.4 hPa Calm     70 % 0 mm
08:23 6.7 °C 0.9 °C 1031.4 hPa Calm     67 % 0 mm
08:28 6.9 °C 1.2 °C 1031.4 hPa Calm     67 % 0 mm
08:33 7.3 °C 1.4 °C 1031.7 hPa Calm     66 % 0 mm
08:38 7.6 °C 0.6 °C 1031.4 hPa SSE 3.7 km/h 3.7 km/h 61 % 0 mm
08:43 7.9 °C 0.4 °C 1031.7 hPa ESE 1.9 km/h 1.9 km/h 59 % 0 mm
08:48 7.9 °C 0.1 °C 1031.7 hPa South 1.6 km/h 1.6 km/h 58 % 0 mm
08:53 8.2 °C 0.4 °C 1031.7 hPa SW 1.9 km/h 1.9 km/h 58 % 0 mm
08:58 8.2 °C -0.3 °C 1031.7 hPa North 1.9 km/h 1.9 km/h 55 % 0 mm
09:03 7.9 °C 0.2 °C 1031.7 hPa NW 3.7 km/h 3.7 km/h 58 % 0 mm
09:08 7.8 °C 0.1 °C 1031.4 hPa NNW 1.9 km/h 1.9 km/h 58 % 0 mm
09:13 7.9 °C -0.1 °C 1031.4 hPa NW 3.7 km/h 3.7 km/h 57 % 0 mm
09:18 7.7 °C -0.6 °C 1031.4 hPa NW 1.6 km/h 1.6 km/h 56 % 0 mm
09:23 7.8 °C -0.7 °C 1031.7 hPa NW 3.7 km/h 3.7 km/h 55 % 0 mm
09:28 8.2 °C -0.3 °C 1031.7 hPa NNW 3.7 km/h 3.7 km/h 55 % 0 mm
09:33 8.4 °C -0.4 °C 1031.7 hPa SSE 3.7 km/h 3.7 km/h 54 % 0 mm
09:38 8.8 °C -0.1 °C 1031.7 hPa SW 5.6 km/h 5.6 km/h 54 % 0 mm
09:43 8.7 °C -0.6 °C 1031.4 hPa NW 3.7 km/h 3.7 km/h 52 % 0 mm
09:48 8.7 °C -0.3 °C 1031.4 hPa NW 3.7 km/h 3.7 km/h 53 % 0 mm
09:53 8.9 °C -0.4 °C 1031.4 hPa NW 5.6 km/h 5.6 km/h 52 % 0 mm
09:58 9.2 °C -0.2 °C 1031.4 hPa WNW 3.2 km/h 3.2 km/h 52 % 0 mm
10:03 9.5 °C 0.1 °C 1031.4 hPa SSE 1.9 km/h 1.9 km/h 52 % 0 mm
10:08 9.8 °C -0.1 °C 1031.4 hPa WNW 3.7 km/h 3.7 km/h 50 % 0 mm
10:13 9.8 °C -0.1 °C 1031.4 hPa South 3.2 km/h 3.2 km/h 50 % 0 mm
10:18 10.2 °C 0.2 °C 1031 hPa SSE 4.8 km/h 4.8 km/h 50 % 0 mm
10:23 10.4 °C 0.1 °C 1031 hPa SSE 1.9 km/h 1.9 km/h 49 % 0 mm
10:28 10.4 °C -0.1 °C 1031 hPa NNW 3.7 km/h 3.7 km/h 48 % 0 mm
10:33 10.2 °C -0.3 °C 1031 hPa West 3.7 km/h 3.7 km/h 48 % 0 mm
10:38 10.1 °C -0.8 °C 1031 hPa NW 3.7 km/h 3.7 km/h 47 % 0 mm
10:43 10.2 °C -0.1 °C 1030.7 hPa NW 1.9 km/h 1.9 km/h 49 % 0 mm
10:48 10.5 °C -0.1 °C 1030.7 hPa WNW 1.9 km/h 1.9 km/h 48 % 0 mm
10:53 10.7 °C 0.1 °C 1030.7 hPa SSE 3.2 km/h 3.2 km/h 48 % 0 mm
10:58 11.2 °C -0.1 °C 1030.7 hPa WSW 1.9 km/h 1.9 km/h 46 % 0 mm
11:03 10.9 °C -0.9 °C 1030.7 hPa West 3.7 km/h 3.7 km/h 44 % 0 mm
11:08 10.7 °C -0.8 °C 1030.4 hPa West 1.9 km/h 1.9 km/h 45 % 0 mm
11:13 10.8 °C -0.3 °C 1030.4 hPa WNW 5.6 km/h 5.6 km/h 46 % 0 mm
11:18 11.4 °C 0.8 °C 1030 hPa SSW 1.9 km/h 1.9 km/h 48 % 0 mm
11:23 12 °C 0.4 °C 1030 hPa South 5.6 km/h   45 % 0 mm
11:28 12.3 °C 0.3 °C 1030 hPa NNE 3.2 km/h 3.2 km/h 44 % 0 mm
11:33 12.2 °C -0.7 °C 1030 hPa NNW 1.9 km/h 2.3 km/h 41 % 0 mm
11:38 11.9 °C -0.6 °C 1029.7 hPa WNW 3.7 km/h 3.7 km/h 42 % 0 mm
11:43 12.2 °C -0.1 °C 1029.7 hPa NW 3.7 km/h 3.7 km/h 43 % 0 mm
11:48 12.1 °C -0.8 °C 1029.7 hPa West 3.7 km/h 3.7 km/h 41 % 0 mm
11:53 12.3 °C -0.6 °C 1029.7 hPa WNW 3.7 km/h 3.7 km/h 41 % 0 mm
11:58 12.6 °C -0.4 °C 1029.7 hPa NNW 3.7 km/h 3.7 km/h 41 % 0 mm
12:03 12.6 °C -0.7 °C 1029.3 hPa NW 3.7 km/h 3.7 km/h 40 % 0 mm
12:08 12.9 °C -1.1 °C 1029.3 hPa NNE 1.9 km/h 1.9 km/h 38 % 0 mm
12:13 12.7 °C -1.6 °C 1029.3 hPa NW 3.7 km/h 3.7 km/h 37 % 0 mm
12:19 12.4 °C -1.9 °C 1029 hPa East 1.9 km/h   37 % 0 mm
12:24 12.4 °C -1.2 °C 1029 hPa SSE 1.9 km/h 1.9 km/h 39 % 0 mm
12:29 12.8 °C -1.9 °C 1029 hPa NW 1.9 km/h 1.9 km/h 36 % 0 mm
12:34 12.8 °C -0.8 °C 1028.7 hPa Calm     39 % 0 mm
12:39 13.3 °C -0.4 °C 1028.7 hPa SE 5.6 km/h 5.6 km/h 39 % 0 mm
12:44 13.6 °C -0.8 °C 1028.7 hPa East 5.6 km/h 5.6 km/h 37 % 0 mm
12:49 13.7 °C -0.3 °C 1028.7 hPa SE 1.9 km/h 1.9 km/h 38 % 0 mm
12:54 13.6 °C -1.6 °C 1028.7 hPa NW 3.7 km/h 3.7 km/h 35 % 0 mm
12:59 13.4 °C -1.3 °C 1028.3 hPa NW 5.6 km/h 5.6 km/h 36 % 0 mm
13:04 13.7 °C -0.1 °C 1028.3 hPa SSE 3.7 km/h   39 % 0 mm
13:07 14 °C -0.5 °C 1028.3 hPa ENE 1.9 km/h 1.9 km/h 37 % 0 mm
13:12 14 °C -1.2 °C 1028.3 hPa WNW 5.6 km/h 5.6 km/h 35 % 0 mm
13:17 13.7 °C -1.1 °C 1028 hPa WNW 5.6 km/h 5.6 km/h 36 % 0 mm
13:23 13.9 °C -1.3 °C 1028 hPa NW 1.6 km/h   35 % 0 mm
13:28 13.8 °C -1.4 °C 1028 hPa NW 4.8 km/h 4.8 km/h 35 % 0 mm
13:30 13.8 °C -1.8 °C 1028 hPa North 5.6 km/h 5.6 km/h 34 % 0 mm
13:35 13.7 °C -1.9 °C 1028 hPa ESE 1.9 km/h 2.3 km/h 34 % 0 mm
13:40 13.8 °C -0.6 °C 1027.7 hPa NNE 6.4 km/h 6.4 km/h 37 % 0 mm
13:45 14 °C -1.6 °C 1027.7 hPa West 5.6 km/h 5.6 km/h 34 % 0 mm
13:46 14 °C -1.6 °C 1027.7 hPa WNW 5.6 km/h 5.6 km/h 34 % 0 mm
13:51 13.9 °C -2.1 °C 1027.7 hPa NW 5.6 km/h 5.6 km/h 33 % 0 mm
13:57 13.9 °C -1.7 °C 1027.7 hPa NW 5.6 km/h 5.6 km/h 34 % 0 mm
14:02 13.9 °C -2.1 °C 1027.3 hPa NW 6.4 km/h 6.4 km/h 33 % 0 mm
14:05 13.9 °C -2.2 °C 1027.3 hPa NNW 5.6 km/h 5.6 km/h 33 % 0 mm
14:10 14.2 °C -1.5 °C 1027.3 hPa NW 5.6 km/h 5.6 km/h 34 % 0 mm
14:15 14.3 °C -1.8 °C 1027.3 hPa NW 5.6 km/h 5.6 km/h 33 % 0 mm
14:20 14.2 °C -2.3 °C 1027 hPa NW 3.7 km/h 3.7 km/h 32 % 0 mm
14:25 14.2 °C -2.3 °C 1027 hPa NW 9.3 km/h 9.3 km/h 32 % 0 mm
14:26 14.2 °C -2.7 °C 1027 hPa West 9.3 km/h 9.3 km/h 31 % 0 mm
14:31 14.4 °C -2.6 °C 1027 hPa NW 7.4 km/h 7.4 km/h 31 % 0 mm
14:36 14.4 °C -2.1 °C 1026.6 hPa WSW 5.6 km/h 5.6 km/h 32 % 0 mm
14:41 14.5 °C -1.6 °C 1026.6 hPa NW 5.6 km/h 5.6 km/h 33 % 0 mm
14:42 14.5 °C -2.4 °C 1026.6 hPa NNW 5.6 km/h 5.6 km/h 31 % 0 mm
14:47 14.3 °C -2.6 °C 1026.6 hPa West 3.7 km/h 3.7 km/h 31 % 0 mm
14:52 14.3 °C -2.2 °C 1026.6 hPa WNW 3.7 km/h 3.7 km/h 32 % 0 mm
14:57 14.3 °C -2.6 °C 1026.3 hPa NW 7.4 km/h 7.4 km/h 31 % 0 mm
14:58 14.3 °C -3.1 °C 1026.3 hPa WNW 7.4 km/h 7.4 km/h 30 % 0 mm
15:03 14.4 °C -2.9 °C 1026.3 hPa WNW 6.4 km/h 6.4 km/h 30 % 0 mm
15:08 14.4 °C -2.9 °C 1026.3 hPa North 5.6 km/h 5.6 km/h 30 % 0 mm
15:13 14.3 °C -3.1 °C 1026 hPa WNW 1.9 km/h 1.9 km/h 30 % 0 mm
15:18 14.3 °C -2.7 °C 1026 hPa NW 13 km/h 13 km/h 31 % 0 mm
15:23 14.3 °C -2.6 °C 1026.3 hPa NW 5.6 km/h 5.6 km/h 31 % 0 mm
15:28 14.4 °C -2.1 °C 1026 hPa NW 5.6 km/h 5.6 km/h 32 % 0 mm
15:33 14.3 °C -3.1 °C 1026 hPa NW 7.4 km/h 7.4 km/h 30 % 0 mm
15:38 14.2 °C -3.1 °C 1026 hPa NNW 5.6 km/h 5.6 km/h 30 % 0 mm
15:43 14.3 °C -2.6 °C 1026 hPa NE 5.6 km/h 5.6 km/h 31 % 0 mm
15:48 14.2 °C -3.2 °C 1026 hPa NW 7.4 km/h 7.4 km/h 30 % 0 mm
15:51 14.1 °C -3.3 °C 1026 hPa WNW 5.6 km/h 5.6 km/h 30 % 0 mm
15:56 13.9 °C -2.5 °C 1025.6 hPa NW 3.2 km/h 3.2 km/h 32 % 0 mm
16:01 14 °C -2.4 °C 1025.6 hPa NW 5.6 km/h 5.6 km/h 32 % 0 mm
16:06 14.1 °C -2.8 °C 1025.6 hPa NW 9.3 km/h 9.3 km/h 31 % 0 mm
16:11 14 °C -2.9 °C 1025.6 hPa West 5.6 km/h 5.6 km/h 31 % 0 mm
16:16 13.9 °C -2.1 °C 1025.6 hPa WNW 5.6 km/h 5.6 km/h 33 % 0 mm
16:21 13.9 °C -2.5 °C 1025.6 hPa NW 8 km/h 8 km/h 32 % 0 mm
16:26 13.8 °C -2.6 °C 1025.3 hPa NW 5.6 km/h 5.6 km/h 32 % 0 mm
16:31 13.8 °C -2.2 °C 1025.3 hPa NNW 11.3 km/h 11.3 km/h 33 % 0 mm
16:36 13.8 °C -3.1 °C 1025.3 hPa NW 7.4 km/h 7.4 km/h 31 % 0 mm
16:41 13.7 °C -2.7 °C 1025.3 hPa NW 3.7 km/h 3.7 km/h 32 % 0 mm
16:46 13.7 °C -2.8 °C 1025.3 hPa NW 7.4 km/h 7.4 km/h 32 % 0 mm
16:51 13.6 °C -2.4 °C 1025.3 hPa NW 5.6 km/h 5.6 km/h 33 % 0 mm
16:56 13.6 °C -3.2 °C 1024.9 hPa NW 6.4 km/h 6.4 km/h 31 % 0 mm
17:01 13.4 °C -3.4 °C 1024.9 hPa NW 5.6 km/h 5.6 km/h 31 % 0 mm
17:06 13.4 °C -3.4 °C 1024.9 hPa West 5.6 km/h 5.6 km/h 31 % 0 mm
17:11 13.3 °C -2.7 °C 1024.9 hPa NW 3.7 km/h 3.7 km/h 33 % 0 mm
17:16 13.2 °C -3.2 °C 1024.9 hPa NNW 9.3 km/h 9.3 km/h 32 % 0 mm
17:21 13.1 °C -3.3 °C 1024.9 hPa WNW 8 km/h 8 km/h 32 % 0 mm
17:26 12.9 °C -3 °C 1024.9 hPa WNW 3.7 km/h 3.7 km/h 33 % 0 mm
17:31 12.6 °C -2.4 °C 1024.9 hPa WNW 3.2 km/h 3.2 km/h 35 % 0 mm
17:36 12.6 °C -3.3 °C 1024.9 hPa WNW 3.7 km/h 3.7 km/h 33 % 0 mm
17:41 12.4 °C -3.1 °C 1024.6 hPa NW 1.9 km/h 1.9 km/h 34 % 0 mm
17:46 12.1 °C -2.9 °C 1024.6 hPa NW 5.6 km/h 5.6 km/h 35 % 0 mm
17:51 11.9 °C -2.7 °C 1024.6 hPa WNW 1.9 km/h 1.9 km/h 36 % 0 mm
17:56 11.7 °C -2.2 °C 1024.6 hPa West 1.6 km/h 1.6 km/h 38 % 0 mm
18:01 11.3 °C -2.2 °C 1024.6 hPa Calm     39 % 0 mm
18:06 11.1 °C -2.7 °C 1024.6 hPa WNW 1.9 km/h   38 % 0 mm
18:11 11.2 °C -2.7 °C 1024.6 hPa Calm     38 % 0 mm
18:16 11.2 °C -2.7 °C 1024.6 hPa Calm     38 % 0 mm
18:21 11 °C -2.4 °C 1024.6 hPa Calm     39 % 0 mm
18:26 10.7 °C -2.3 °C 1024.6 hPa Calm     40 % 0 mm
18:31 10.6 °C -2.5 °C 1024.6 hPa Calm     40 % 0 mm
18:36 10.6 °C -2.2 °C 1024.6 hPa Calm     41 % 0 mm
18:41 10.6 °C -2.2 °C 1024.6 hPa Calm     41 % 0 mm
18:46 10.3 °C -2.1 °C 1024.6 hPa Calm     42 % 0 mm
18:51 10.3 °C -2.1 °C 1024.6 hPa Calm     42 % 0 mm
18:56 10.2 °C -2.2 °C 1024.6 hPa Calm     42 % 0 mm
18:57 10.2 °C -2.2 °C 1024.6 hPa Calm     42 % 0 mm
19:02 10 °C -2 °C 1024.6 hPa Calm     43 % 0 mm
19:07 10 °C -2 °C 1024.6 hPa Calm     43 % 0 mm
19:12 10.1 °C -2.3 °C 1024.9 hPa NNW 1.9 km/h 1.9 km/h 42 % 0 mm
19:17 10.2 °C -2.2 °C 1024.9 hPa NW 1.9 km/h   42 % 0 mm
19:22 10.1 °C -2.2 °C 1024.9 hPa Calm     42 % 0 mm
19:27 10.1 °C -2 °C 1024.6 hPa Calm     43 % 0 mm
19:32 9.9 °C -2.1 °C 1024.9 hPa Calm   0.3 km/h 43 % 0 mm
19:37 9.8 °C -2.2 °C 1024.9 hPa NNW 1.9 km/h 1.9 km/h 43 % 0 mm
19:42 9.7 °C -2.3 °C 1024.9 hPa NW 1.9 km/h 1.9 km/h 43 % 0 mm
19:48 9.7 °C -2.3 °C 1024.9 hPa NW 1.9 km/h 1.9 km/h 43 % 0 mm
19:53 9.8 °C -2.6 °C 1024.9 hPa NW 1.9 km/h   42 % 0 mm
19:57 9.8 °C -2.6 °C 1024.9 hPa NW 3.7 km/h 3.7 km/h 42 % 0 mm
20:03 9.8 °C -2.6 °C 1024.9 hPa NNW 1.9 km/h 1.9 km/h 42 % 0 mm
20:08 9.8 °C -2.6 °C 1024.6 hPa NW 3.7 km/h 3.7 km/h 42 % 0 mm
20:13 9.7 °C -2.9 °C 1024.6 hPa Calm     41 % 0 mm
20:18 9.7 °C -2.9 °C 1024.6 hPa NW 1.9 km/h 1.9 km/h 41 % 0 mm
20:23 9.6 °C -2.7 °C 1024.6 hPa Calm     42 % 0 mm
20:28 9.5 °C -2.8 °C 1024.6 hPa Calm     42 % 0 mm
20:33 9.4 °C -2.6 °C 1024.9 hPa Calm     43 % 0 mm
20:38 9.4 °C -2.6 °C 1024.9 hPa Calm     43 % 0 mm
20:43 9.2 °C -1.5 °C 1024.9 hPa Calm     47 % 0 mm
20:48 8.7 °C -1.1 °C 1024.9 hPa Calm     50 % 0 mm
20:53 8.3 °C -1.5 °C 1024.9 hPa Calm     50 % 0 mm
20:58 7.9 °C -0.8 °C 1024.9 hPa Calm     54 % 0 mm
21:03 7.7 °C -1.8 °C 1024.9 hPa Calm     51 % 0 mm
21:08 7.6 °C -1.4 °C 1024.9 hPa Calm     53 % 0 mm
21:13 7.3 °C -0.7 °C 1024.9 hPa Calm     57 % 0 mm
21:18 7 °C -0.7 °C 1024.9 hPa Calm     58 % 0 mm
21:23 6.7 °C -0.3 °C 1024.9 hPa Calm     61 % 0 mm
21:28 6.4 °C -0.3 °C 1024.9 hPa Calm     62 % 0 mm
21:33 6.1 °C -0.4 °C 1024.9 hPa Calm     63 % 0 mm
21:38 5.8 °C -0.5 °C 1024.9 hPa Calm     64 % 0 mm
21:43 5.6 °C 0.1 °C 1024.9 hPa Calm     68 % 0 mm
21:48 5.2 °C 0.2 °C 1024.9 hPa Calm     70 % 0 mm
21:53 4.9 °C -0.1 °C 1024.9 hPa Calm     70 % 0 mm
21:58 4.6 °C -0.1 °C 1025.3 hPa Calm     72 % 0 mm
22:03 4.3 °C -0.3 °C 1024.9 hPa Calm     72 % 0 mm
22:08 4.2 °C -0.2 °C 1025.3 hPa Calm     73 % 0 mm
22:13 4.3 °C -0.3 °C 1025.3 hPa Calm     72 % 0 mm
22:18 4.2 °C -0.4 °C 1025.3 hPa Calm     72 % 0 mm
22:23 4.2 °C -0.2 °C 1025.3 hPa Calm     73 % 0 mm
22:28 4 °C -0.1 °C 1025.3 hPa Calm     75 % 0 mm
22:33 3.7 °C -0.1 °C 1025.3 hPa Calm     76 % 0 mm
22:38 3.6 °C -0.4 °C 1025.3 hPa Calm     75 % 0 mm
22:43 3.6 °C -0.7 °C 1025.3 hPa NNE 1.9 km/h   74 % 0 mm
22:48 3.6 °C -0.8 °C 1025.3 hPa NNE 1.9 km/h 1.9 km/h 73 % 0 mm
22:53 3.6 °C -1 °C 1025.6 hPa Calm     72 % 0 mm
22:58 3.4 °C -1.1 °C 1025.6 hPa Calm     72 % 0 mm
23:03 3.4 °C -1.3 °C 1025.6 hPa Calm     71 % 0 mm
23:08 3.4 °C -0.8 °C 1025.6 hPa Calm     74 % 0 mm
23:13 3.2 °C -0.8 °C 1025.6 hPa Calm     75 % 0 mm
23:18 3.1 °C -0.9 °C 1025.6 hPa Calm     75 % 0 mm
23:23 2.9 °C -1.1 °C 1025.6 hPa NNE 1.9 km/h 1.9 km/h 75 % 0 mm
23:28 2.9 °C -1.3 °C 1025.6 hPa NNE 1.9 km/h 1.9 km/h 74 % 0 mm
23:33 2.8 °C -1.3 °C 1026 hPa NNE 1.9 km/h 1.9 km/h 74 % 0 mm
23:38 2.8 °C -1.3 °C 1026 hPa ESE 4.8 km/h 4.8 km/h 74 % 0 mm
23:43 2.7 °C -1.4 °C 1026 hPa Calm     74 % 0 mm
23:48 2.7 °C -1.5 °C 1026 hPa Calm     74 % 0 mm
23:53 2.8 °C -1.4 °C 1026.3 hPa ESE 1.9 km/h 1.9 km/h 74 % 0 mm
23:58 2.9 °C -1.6 °C 1026.3 hPa ESE 1.9 km/h   72 % 0 mm
Park Place, Exeter, Tulare County, California, USA
Compliments of Weather Underground - 2.75 mb